Regional Weather Roundup
Issued by NWS

Home | Current Version | Previous Version | Text Only | Print | Product List | Glossary On
Versions: 1 2 3 4 5 6 7 8 9 10 11 12 13 14 15 16 17 18 19 20 21 22 23 24 25 26 27 28 29 30 31 32 33 34 35 36 37 38 39 40 41 42 43 44 45 46 47 48 49 50
000
ASUS43 KLSX 291310
RWRMO

WEATHER SUMMARY FOR MISSOURI
NATIONAL WEATHER SERVICE SPRINGFIELD MO
800 AM CDT MON AUG 29 2016

NOTE: "FAIR" INDICATES FEW OR NO CLOUDS BELOW 12,000 FEET WITH NO
       SIGNIFICANT WEATHER AND/OR OBSTRUCTIONS TO VISIBILITY.
       CURRENT SKY AND/OR WEATHER CONDITIONS ARE NOT AVAILABLE FOR
       CHILLICOTHE AND FARMINGTON.

MOZ001>031-035>038-043-044-053-054-291400-
...NORTHERN AND WESTERN MISSOURI...

CITY           SKY/WX    TMP DP  RH WIND       PRES   REMARKS
KANSAS CTY INT MOSUNNY   73  69  87 S3        30.17R
KANSAS C DTWN  SUNNY     75  72  90 CALM      30.16R
LEE`S SUMMIT   SUNNY     73  72  96 CALM      30.18R
ST JOSEPH      SUNNY     72  70  93 CALM      30.17R
KIRKSVILLE     FOG       71  70  96 E5        30.20R VSB 1/4

$$
MOZ066>068-077>081-088>096-101>105-291400-
...SOUTHWEST MISSOURI...

CITY           SKY/WX    TMP DP  RH WIND       PRES   REMARKS
SPRINGFIELD    MOSUNNY   76  70  82 CALM      30.18R
JOPLIN         SUNNY     75  70  84 VRB3      30.17R
BRANSON        MOSUNNY   72  72 100 CALM      30.19R

$$
MOZ032>034-039>042-045>050-055>058-069>072-291400-
...CENTRAL MISSOURI...

CITY           SKY/WX    TMP DP  RH WIND       PRES   REMARKS
COLUMBIA       SUNNY     76  73  91 SE3       30.18R
JEFFERSON CITY SUNNY     73  72  96 CALM      30.17R FOG
ROLLA          SUNNY     77  72  84 CALM      30.19R
SEDALIA        SUNNY     75  72  90 SE3       30.19R
WHITEMAN AFB   SUNNY     73  73 100 CALM      30.17R
OSAGE BEACH    SUNNY     73  71  93 CALM      30.19R

$$
MOZ051-052-059>065-291400-
...EAST CENTRAL MISSOURI...

CITY           SKY/WX    TMP DP  RH WIND       PRES   REMARKS
ST LOUIS INTL  MOSUNNY   79  73  82 NE5       30.19R
ST CHARLES     SUNNY     77  75  93 NE3       30.18R

$$
MOZ072>076-082>087-097>100-106>115-291400-
...SOUTH CENTRAL AND SOUTHEAST MISSOURI...

CITY           SKY/WX    TMP DP  RH WIND       PRES   REMARKS
CAPE GIRARDEAU SUNNY     77  73  87 E5        30.15R
FARMINGTON     SUNNY     75  72  90 CALM      30.20R
POPLAR BLUFF   SUNNY     77  74  90 NE6       30.14R
WEST PLAINS    SUNNY     75  71  87 CALM      30.21R FOG

$$




USA.gov is the U.S. government's official web portal to all federal, state and local government web resources and services.